This demonstration page uses our WeatherBlox Daily Observations layout. Learn more.

Left ArrowRight Arrow

34.16533, -84.80231

Hourly Observations for March 12, 2022

Temp ( °F °C ) Dew Point ( °F °C ) Humidity (%) Winds ( mph kmh ) Pressure ( in mb ) Visibility ( mi km ) Precip ( " mm )
12:15 am 00:15 Cloudy with Light Rain 55 13 54 12 94 94 VRB 3 6 29.67 1005 8 13 0.00 0.00
12:35 am 00:35 Cloudy with Light Rain 55 13 54 12 94 94 Calm 29.66 1004 8 13 0.00 0.00
12:55 am 00:55 Cloudy with Light Rain 55 13 54 12 94 94 Calm 29.65 1004 5 8 0.01 0.25
1:15 am 01:15 Cloudy with Light Rain 55 13 54 12 94 94 W 13 20 29.67 1005 4 6 0.00 0.00
1:35 am 01:35 Cloudy with Rain 50 10 46 8 88 88 NW 12 19 29.70 1006 2 3 0.00 0.00
1:55 am 01:55 Cloudy with Light Rain 43 6 41 5 93 93 NNW 8 13 29.74 1007 5 8 0.13 3.30
2:15 am 02:15 Cloudy with Light Rain 41 5 39 4 93 93 WNW 12 19 29.75 1008 4 6 0.00 0.00
2:35 am 02:35 Cloudy with Light Rain 39 4 37 3 93 93 NNW 12 19 29.77 1008 3 5 0.00 0.00
2:55 am 02:55 Cloudy with Light Rain 37 3 36 2 93 93 NW 16 26 29.75 1007 6 10 0.08 2.03
3:15 am 03:15 Cloudy with Light Rain 37 3 34 1 87 87 WSW 13 20 29.76 1008 6 10 0.00 0.00
3:35 am 03:35 Cloudy with Rain 37 3 34 1 87 87 WNW 10 17 29.78 1008 3 4 0.00 0.00
3:55 am 03:55 Cloudy with Light Rain 36 2 34 1 93 93 WNW 16 26 29.84 1011 3 5 0.09 2.29
4:15 am 04:15 Cloudy with Light Snow 34 1 32 0 93 93 NW 14 22 29.84 1010 1 2 0.00 0.00
4:35 am 04:35 Cloudy with Light Snow 32 0 32 0 100 100 WNW 9 15 29.84 1010 2 3 0.00 0.00
4:55 am 04:55 Cloudy with Light Snow 32 0 30 -1 93 93 NW 9 15 29.81 1009 2 3 0.02 0.51
5:15 am 05:15 Cloudy with Light Snow 32 0 30 -1 93 93 WNW 14 22 29.82 1010 5 8 0.00 0.00
5:35 am 05:35 Cloudy with Light Wintry Mix 32 0 28 -2 87 87 WNW 10 17 29.83 1010 9 14 0.00 0.00
5:55 am 05:55 Cloudy 32 0 28 -2 87 87 WNW 9 15 29.85 1011 10 16 0.00 0.00
6:15 am 06:15 Cloudy 32 0 28 -2 87 87 WNW 16 26 29.87 1011 10 16 0.00 0.00
6:35 am 06:35 Cloudy 30 -1 27 -3 86 86 WNW 14 22 29.88 1012 10 16 0.00 0.00
6:55 am 06:55 Cloudy 30 -1 25 -4 80 80 WNW 16 26 29.92 1013 10 16 0.00 0.00
7:15 am 07:15 Cloudy 30 -1 25 -4 80 80 NW 15 24 29.94 1014 10 16 0.00 0.00
7:35 am 07:35 Cloudy 30 -1 23 -5 75 75 WNW 15 24 29.96 1015 10 16 0.00 0.00
7:55 am 07:55 Mostly Cloudy with Light Wintry Mix 30 -1 25 -4 80 80 WNW 13 20 29.99 1016 9 14 0.00 0.00
8:15 am 08:15 Mostly Cloudy with Light Snow 30 -1 25 -4 80 80 WNW 10 17 30.01 1016 6 10 0.00 0.00
8:35 am 08:35 Cloudy 30 -1 21 -6 69 69 WNW 15 24 30.03 1017 10 16 0.00 0.00
8:55 am 08:55 Cloudy 30 -1 21 -6 69 69 WNW 12 19 30.05 1018 10 16 0.00 0.00
9:15 am 09:15 Cloudy 30 -1 21 -6 69 69 WNW 17 28 30.07 1018 10 16 0.00 0.00
9:35 am 09:35 Cloudy 28 -2 18 -8 64 64 WNW 15 24 30.10 1019 10 16 0.00 0.00
9:55 am 09:55 Cloudy 28 -2 16 -9 59 59 WNW 23 37 30.12 1020 10 16 0.00 0.00
10:15 am 10:15 Cloudy 28 -2 16 -9 59 59 WNW 17 28 30.13 1020 10 16 0.00 0.00
10:35 am 10:35 Cloudy 28 -2 18 -8 64 64 WNW 20 31 30.14 1020 10 16 0.00 0.00
10:55 am 10:55 Cloudy 30 -1 16 -9 55 55 WNW 21 33 30.14 1021 10 16 0.00 0.00
11:15 am 11:15 Mostly Cloudy 30 -1 14 -10 51 51 WNW 21 33 30.15 1021 10 16 0.00 0.00
11:35 am 11:35 Mostly Cloudy 30 -1 14 -10 51 51 WNW 18 30 30.17 1022 10 16 0.00 0.00
11:55 am 11:55 Mostly Cloudy 32 0 16 -9 51 51 W 17 28 30.17 1022 10 16 0.00 0.00
12:15 pm 12:15 Partly Cloudy 32 0 16 -9 51 51 WNW 15 24 30.19 1022 10 16 0.00 0.00
12:55 pm 12:55 Sunny 32 0 10 -12 40 40 WNW 22 35 30.19 1022 10 16 0.00 0.00
1:15 pm 13:15 Sunny 32 0 9 -13 37 37 WNW 17 28 30.20 1023 10 16 0.00 0.00
1:35 pm 13:35 Sunny 34 1 9 -13 35 35 WNW 17 28 30.20 1023 10 16 0.00 0.00
1:55 pm 13:55 Sunny 34 1 9 -13 35 35 WNW 15 24 30.20 1023 10 16 0.00 0.00
2:15 pm 14:15 Sunny 34 1 9 -13 35 35 WNW 14 22 30.20 1023 10 16 0.00 0.00
2:35 pm 14:35 Sunny 34 1 7 -14 32 32 W 25 41 30.20 1023 10 16 0.00 0.00
2:55 pm 14:55 Sunny 36 2 7 -14 30 30 W 10 17 30.20 1023 10 16 0.00 0.00
3:15 pm 15:15 Sunny 34 1 5 -15 29 29 NW 16 26 30.20 1023 10 16 0.00 0.00
3:35 pm 15:35 Sunny 34 1 1 -17 25 25 WNW 18 30 30.21 1023 10 16 0.00 0.00
3:55 pm 15:55 Sunny 36 2 3 -16 25 25 WNW 18 30 30.20 1023 10 16 0.00 0.00
4:15 pm 16:15 Sunny 34 1 3 -16 27 27 NW 12 19 30.22 1023 10 16 0.00 0.00
4:35 pm 16:35 Sunny 34 1 3 -16 27 27 NW 13 20 30.23 1024 10 16 0.00 0.00
4:55 pm 16:55 Sunny 36 2 3 -16 25 25 WNW 15 24 30.23 1024 10 16 0.00 0.00
5:15 pm 17:15 Sunny 34 1 1 -17 25 25 WNW 15 24 30.25 1024 10 16 0.00 0.00
5:35 pm 17:35 Sunny 34 1 1 -17 25 25 NNW 9 15 30.26 1025 10 16 0.00 0.00
5:55 pm 17:55 Sunny 34 1 0 -18 23 23 VRB 7 11 30.27 1025 10 16 0.00 0.00
6:15 pm 18:15 Sunny 34 1 3 -16 27 27 WNW 10 17 30.28 1025 10 16 0.00 0.00
6:35 pm 18:35 Sunny 32 0 3 -16 29 29 WNW 8 13 30.29 1026 10 16 0.00 0.00
6:55 pm 18:55 Clear 32 0 3 -16 29 29 VRB 5 7 30.30 1026 10 16 0.00 0.00
7:15 pm 19:15 Clear 30 -1 3 -16 31 31 VRB 7 11 30.31 1026 10 16 0.00 0.00
7:35 pm 19:35 Clear 30 -1 5 -15 34 34 VRB 6 9 30.32 1027 10 16 0.00 0.00
7:55 pm 19:55 Clear 30 -1 5 -15 34 34 VRB 5 7 30.33 1027 10 16 0.00 0.00
8:15 pm 20:15 Clear 30 -1 5 -15 34 34 VRB 5 7 30.34 1028 10 16 0.00 0.00
8:35 pm 20:35 Clear 30 -1 5 -15 34 34 WNW 6 9 30.36 1028 10 16 0.00 0.00
8:55 pm 20:55 Clear 28 -2 3 -16 34 34 VRB 3 6 30.39 1029 10 16 0.00 0.00
9:15 pm 21:15 Clear 28 -2 5 -15 37 37 W 7 11 30.38 1029 10 16 0.00 0.00
9:35 pm 21:35 Clear 28 -2 3 -16 34 34 WNW 7 11 30.40 1029 10 16 0.00 0.00
9:55 pm 21:55 Clear 28 -2 3 -16 34 34 NW 6 9 30.40 1029 10 16 0.00 0.00
10:15 pm 22:15 Clear 28 -2 5 -15 37 37 VRB 6 9 30.41 1030 10 16 0.00 0.00
10:35 pm 22:35 Clear 28 -2 5 -15 37 37 VRB 5 7 30.41 1030 10 16 0.00 0.00
10:55 pm 22:55 Clear 28 -2 3 -16 34 34 VRB 5 7 30.41 1030 10 16 0.00 0.00
11:15 pm 23:15 Clear 27 -3 5 -15 39 39 VRB 5 7 30.41 1030 10 16 0.00 0.00
11:35 pm 23:35 Clear 27 -3 5 -15 39 39 Calm 30.42 1030 10 16 0.00 0.00
11:55 pm 23:55 Clear 27 -3 3 -16 36 36 WNW 5 7 30.42 1030 10 16 0.00 0.00

Powered by AerisWeather